Ellsworth AFB, SD

5:04 AM MDT on May 27, 2017 (GMT -0600)
Ellsworth Air Force Base

Weather History for KRCA - October, 2012

Change the Weather History Date:

Saturday, October 13, 2012

  Actual Average Record
Temperature  
Mean Temperature 61 °F -  
Max Temperature 72 °F 60 °F 77 °F (1996)
Min Temperature 50 °F 36 °F 23 °F (2006)
Degree Days  
Heating Degree Days 4    
Growing Degree Days 11 (Base 50)    
Moisture  
Dew Point 34 °F    
Average Humidity 38    
Maximum Humidity 56    
Minimum Humidity 23    
Precipitation  
Precipitation 0.00 in - - ()
Sea Level Pressure  
Sea Level Pressure 29.79 in    
Wind  
Wind Speed 12 mph (NNW)    
Max Wind Speed 26 mph    
Max Gust Speed 36 mph    
Visibility 10 miles    
Events      
Averages and records for this station are not official NWS values.
T = Trace of Precipitation, MM = Missing Value Source: NWS Daily Summary

Daily Weather History Graph

Daily Weather History Graph

Search for Another Location

Airport or City:

Trip Planner

Search our weather history database for the weather conditions in past years. The results will help you decide how hot, cold, wet, or windy it might be!

Date:

Astronomy

Oct. 13, 2012 Rise Set
Actual Time 7:05 AM MDT 6:10 PM MDT
Civil Twilight 6:36 AM MDT 6:39 PM MDT
Nautical Twilight 6:02 AM MDT 7:13 PM MDT
Astronomical Twilight 5:29 AM MDT 7:46 PM MDT
Moon 4:54 AM MDT (10/13) 4:57 PM MDT (10/13)
Length of Visible Light 12h 03m
Length of Day
11h 05m
Waning Crescent, 4% of the Moon is Illuminated
Oct 13
Waning Crescent
Oct 15
New
Oct 21
First Quarter
Oct 29
Full
Nov 6
Last Quarter

Hourly Weather History & Observations

Time (MDT) Temp. Dew Point Humidity Pressure Visibility Wind Dir Wind Speed Gust Speed Precip Events Conditions
12:55 AM 50.0 °F 33.4 °F 53% 29.67 in 10.0 mi NNW 8.1 mph - N/A   Clear
1:55 AM 51.8 °F 34.2 °F 51% 29.64 in 10.0 mi Calm Calm - N/A   Overcast
2:55 AM 56.3 °F 34.3 °F 44% 29.64 in 10.0 mi NNW 10.4 mph - N/A   Overcast
3:55 AM 53.8 °F 35.2 °F 50% 29.64 in 10.0 mi Calm Calm - N/A   Overcast
4:55 AM 54.9 °F 34.9 °F 47% 29.65 in 10.0 mi NNW 5.8 mph - N/A   Overcast
5:55 AM 54.5 °F 35.1 °F 48% 29.70 in 10.0 mi SE 5.8 mph - N/A   Overcast
6:55 AM 54.5 °F 34.9 °F 48% 29.73 in 10.0 mi North 4.6 mph - N/A   Mostly Cloudy
7:55 AM 57.4 °F 34.7 °F 43% 29.75 in 10.0 mi North 15.0 mph - N/A   Partly Cloudy
8:55 AM 59.0 °F 30.4 °F 34% 29.77 in 10.0 mi NNW 15.0 mph - N/A   Clear
9:55 AM 65.3 °F 30.7 °F 27% 29.77 in 10.0 mi NNW 23.0 mph 29.9 mph N/A   Clear
10:55 AM 67.3 °F 30.9 °F 26% 29.78 in 10.0 mi North 24.2 mph 29.9 mph N/A   Clear
11:55 AM 68.9 °F 31.1 °F 25% 29.79 in 10.0 mi NNW 25.3 mph - N/A   Clear
12:55 PM 70.5 °F 32.4 °F 24% 29.77 in 10.0 mi NNW 26.5 mph 35.7 mph N/A   Clear
1:55 PM 72.1 °F 32.4 °F 23% 29.75 in 10.0 mi NNW 23.0 mph 28.8 mph N/A   Clear
2:55 PM 72.1 °F 32.4 °F 23% 29.76 in 10.0 mi NNW 25.3 mph 31.1 mph N/A   Clear
3:55 PM 71.4 °F 32.2 °F 24% 29.78 in 10.0 mi NNW 25.3 mph 32.2 mph N/A   Clear
4:55 PM 69.4 °F 31.6 °F 25% 29.81 in 10.0 mi North 26.5 mph 32.2 mph N/A   Scattered Clouds
5:55 PM 65.8 °F 31.5 °F 28% 29.86 in 10.0 mi NNW 20.7 mph 31.1 mph N/A   Mostly Cloudy
6:55 PM 63.7 °F 32.7 °F 31% 29.90 in 10.0 mi NNW 19.6 mph - N/A   Overcast
7:55 PM 62.4 °F 35.1 °F 36% 29.93 in 10.0 mi NNW 21.9 mph 26.5 mph N/A   Mostly Cloudy
8:55 PM 57.6 °F 40.1 °F 52% 29.95 in 10.0 mi NW 11.5 mph - N/A   Overcast
9:55 PM 56.1 °F 39.9 °F 55% 29.96 in 10.0 mi NW 13.8 mph - N/A   Overcast
10:55 PM 57.6 °F 38.1 °F 48% 29.96 in 10.0 mi NW 11.5 mph - N/A   Overcast
11:55 PM 52.3 °F 36.9 °F 56% 29.98 in 10.0 mi NW 10.4 mph - N/A   Scattered Clouds